{"data":{"norad_id":67391,"intl_designator":"2026-004AE","name":"FLAMINGO-1","alt_names":[],"object_type":"PAYLOAD","status":"ACTIVE","operator":null,"country":"GER","launch_date":"2026-01-11","launch_site_code":"AFWTR","launch_vehicle":null,"mission":null,"orbit_class":"UNKNOWN","rcs_meters":null,"size_class":null,"mass_kg":null,"dimensions":null,"purposes":[],"wikipedia_slug":null,"has_3d_model":false,"image_url":null,"decayed_at":null,"tle_current":{"epoch":"2026-05-24T22:44:30.345216Z","epoch_age_seconds":90305,"freshness":"FRESH","line1":"1 67391U 26004AE  26144.94757344  .00001508  00000+0  78064-4 0  9990","line2":"2 67391  97.4545 144.2162 0006430  59.2043 300.9823 15.17719502 20227","mean_motion":15.17719502,"eccentricity":0.000643,"inclination_deg":97.4545,"raan_deg":144.2162,"arg_perigee_deg":59.2043,"mean_anomaly_deg":300.9823,"bstar":7.8064e-5,"rev_number":2022,"period_min":94.879191978651,"perigee_km":508.30388467659,"apogee_km":517.16554570232,"semimajor_km":6890.8717151895,"source":"CELESTRAK","updated_at":"2026-05-25T13:38:06.958214Z"}}}